Regional Weather Roundup
Issued by NWS Green Bay, WI

Home | Current Version | Previous Version | Text Only | Print | Product List | Glossary On
Versions: 1 2 3 4 5 6 7 8 9 10 11 12 13 14 15 16 17 18 19 20 21 22 23 24 25 26 27 28 29 30 31 32 33 34 35 36 37 38 39 40 41 42 43 44 45 46 47 48 49 50
290
ASUS43 KGRB 050500
RWRGRB

NORTH-CENTRAL AND NORTHEAST WISCONSIN REGIONAL WEATHER ROUNDUP
NATIONAL WEATHER SERVICE GREEN BAY WI
1200 AM CDT THU MAY 05 2016

WIZ005-009-010>012-018-019-050600-
NORTH CENTRAL WISCONSIN

CITY           SKY/WX    TMP DP  RH WIND       PRES   REMARKS
IRONWOOD         N/A     32  30  93 CALM      29.98R
MANITOWISH WTR NOT AVBL
ARBOR VITAE    NOT AVBL
EAGLE RIVER    NOT AVBL
LAND O LAKES   NOT AVBL
RHINELANDER    CLEAR     36  30  79 CALM      29.98S
PHILLIPS       NOT AVBL
ANTIGO         NOT AVBL
TOMAHAWK       NOT AVBL
MERRILL        NOT AVBL
$$

WIZ013-073-050600-
NORTHEAST WISCONSIN

CITY           SKY/WX    TMP DP  RH WIND       PRES   REMARKS
IRON MOUNTAIN  CLEAR     34  28  79 CALM      29.96S
MARINETTE      CLEAR     36  30  80 N7        29.98S
$$

WIZ017-030-035>037-045-050600-
CENTRAL WISCONSIN

CITY           SKY/WX    TMP DP  RH WIND       PRES   REMARKS
MEDFORD        NOT AVBL
WAUSAU         CLEAR     43  32  65 N3        29.96S
MOSINEE        NOT AVBL
MARSHFIELD     CLEAR     44  31  60 N7        29.97S
WISC RAPIDS    PTCLDY    43  30  60 NE6       29.98S
STEVENS POINT  NOT AVBL
WAUPACA        NOT AVBL
SHAWANO        NOT AVBL
CLINTONVILLE   NOT AVBL
WAUTOMA        CLEAR     44  32  62 N5        29.98R
$$

WIZ038-039-048-051-050600-
FOX VALLEY

CITY           SKY/WX    TMP DP  RH WIND       PRES   REMARKS
NWS GREEN BAY  CLEAR     39  32  76 N9        29.97R
APPLETON       NOT AVBL
OSHKOSH        CLEAR     42  32  67 N14       29.95S
FOND DU LAC    CLEAR     43  33  68 N16       29.96R
$$

WIZ022-050-052-050600-
EAST CENTRAL WISCONSIN

CITY           SKY/WX    TMP DP  RH WIND       PRES   REMARKS
EPHRAIM        NOT AVBL
STURGEON BAY   CLEAR     39  30  70 N13       29.97S
MANITOWOC      NOT AVBL
SHEBOYGAN      CLEAR     40  31  70 N10       29.94R
$$

LMZ563-521-522-541>543-050600-
LAKESHORE

STATION/POSITION TIME  TEMP    WIND        PRES    VSBY  WAVE
                       AIR SEA DIR/SP/G                  HT/PER
                 (UTC) (F)     (DEG/KT/KT) (MB)    (MI)  (FT/S)
SHEBOYGAN LKSHOR 0400   43      10/ 23/ 26 1014.1F
KEWAUNEE LKSHORE 0400   40     350/ 11/ 14 1013.4S
ALGOMA MARINA    0415          330/ 11/ 16   N/A
NORTHPORT PIER   0422   40     340/ 14/ 19 1014.2S
N MID LAKE BUOY  0350   39 38  330/ 14/ 17 1013.4S         3/ 4
CHAMBERS ISLAND  0400   41     340/ 13/ 16 1014.6S
MENOMINEE LKSHOR 0400   41     340/ 11/ 15 1013.5F
$$




USA.gov is the U.S. government's official web portal to all federal, state and local government web resources and services.